Location: Lima
(44.6384°N, 112.5920°W)
Time: 20:01:35
(UTC+00:00)

UKube-1 - Visible Passes

Search period start: 22 April 2024 00:00
Search period end: 02 May 2024 00:00
Orbit: 588 x 591 km, 98.3° (Epoch: 22 April)

Date Brightness Start Highest point End Pass type
(mag) Time Alt. Az. Time Alt. Az. Time Alt. Az.
22 Apr ? 08:13:27 10° NNE 08:15:22 25° NE 08:15:22 25° NE visible
22 Apr ? 09:49:58 10° NNW 09:51:54 16° NW 09:51:54 16° NW visible
23 Apr ? 08:21:13 10° NNE 08:23:21 29° NNE 08:23:21 29° NNE visible
23 Apr ? 09:58:09 10° NNW 09:59:53 14° NW 09:59:53 14° NW visible
24 Apr ? 08:28:58 10° NNE 08:31:18 32° NNE 08:31:18 32° NNE visible
24 Apr ? 10:06:27 10° NW 10:07:50 12° WNW 10:07:50 12° WNW visible
25 Apr ? 08:36:42 10° NNE 08:39:13 36° NNE 08:39:13 36° NNE visible
26 Apr ? 08:44:25 10° N 08:47:06 39° N 08:47:06 39° N visible
27 Apr ? 08:52:07 10° N 08:54:57 40° NNW 08:54:57 40° NNW visible
28 Apr ? 07:25:43 10° NE 07:26:15 12° ENE 07:26:15 12° ENE visible
28 Apr ? 08:59:49 10° N 09:02:46 39° NNW 09:02:46 39° NNW visible
29 Apr ? 07:32:58 10° NE 07:34:02 14° ENE 07:34:02 14° ENE visible
29 Apr ? 09:07:30 10° N 09:10:33 36° NW 09:10:33 36° NW visible
30 Apr ? 07:40:16 10° NE 07:41:47 17° ENE 07:41:47 17° ENE visible
30 Apr ? 09:15:10 10° N 09:18:17 33° NW 09:18:17 33° NW visible
01 May ? 07:47:36 10° NE 07:49:30 20° ENE 07:49:30 20° ENE visible
01 May ? 09:22:50 10° N 09:26:00 29° NW 09:26:00 29° NW visible
